Back to catalog

THOR ABLESTAR DEB

AlivePO
NORAD 745·DEBRIS·🇺🇸 United States

Launched Sep 28, 1963 from Vandenberg Space Force Base

Loading…

Next Passes (next 24 hours)

TLE

FreshSource: Space-Track

Epoch: Sep 14, 2026, 05:04 UTC

1 00745U 63038E   26257.21174593  .00000168  00000-0  22699-3 0  9996
2 00745  89.9874 335.9806 0018665  40.0747 347.3205 13.55632988103496

Track THOR ABLESTAR DEB in real time with AllMySat

Download on the App Store